SCP
0 0 0 0 0 0 0 0 0 0 0 0 0 0 0 0 0 0 0 0 0 0
0 0 0 0 0 0 0 0 0 0 0 0 0 0 0 0 0 0 0 0 0 0
0 0 0 0 0 0 0 0 0 0 0 0 0 0 0 0 0 0 0 0 0 0
0 0 0 0 0 0 0 0 0 0 0 0 0 0 0 0 0 0 0 0 0 0
0 0 0 0 0 0 0 0 0 0 0 0 0 0 0 0 0 0 0 0 0 0
-0 -0 -0 -0 -0 -0 -0 0 0 0 0 0 0 0 0 0 0 0 0 0 0 0
-0 -0 -0 -0 -0 -0 -0 -0 -0 -0 0 0 0 0 0 0 0 0 0 0 0 0
0 -0 -0 -0 -0 -0 -0 -0 -0 -0 -0 -0 0 0 0 0 0 0 0 0 0 0
0 0 0 0 0 -0 -0 -0 -0 -0 -0 -0 -0 -0 0 0 0 0 0 0 0 0
0 0 0 0 0 0 0 0 -0 -0 -0 -0 -0 0 0 0 0 0 0 0 0 0
0 0 0 0 0 0 0 0 0 0 0 0 0 0 0 0 0 0 0 0 0 0
0 0 0 0 0 0 0 0 0 0 0 0 0 0 0 0 0 0 0 0 0 0
0 0 0 0 0 0 0 0 0 0 0 0 0 0 0 0 0 0 0 0 0 0
0 0 0 0 0 0 0 0 0 0 0 0 0 0 0 0 0 0 0 0 0 0
Wind_Speed_500mb
25 27 27 26 28 27 26 27 27 31 37 32 29 30 36 49 60 64 69 74 77 84
26 26 29 31 31 33 33 31 28 27 29 29 28 32 36 41 47 56 64 70 74 79
27 29 31 30 31 34 37 40 40 37 33 33 32 29 33 40 44 51 57 64 71 73
28 29 31 34 33 31 36 44 49 50 48 46 44 39 36 37 42 48 52 55 62 68
38 39 38 41 44 44 43 42 47 52 52 52 55 52 47 47 46 49 50 51 57 63
48 51 52 54 56 57 59 58 58 60 60 56 56 58 57 58 57 56 56 55 55 58
50 56 59 63 68 72 74 75 74 74 74 70 71 69 66 65 67 69 66 62 60 59
58 64 69 72 74 74 74 75 78 82 84 84 82 82 80 79 78 79 78 78 74 67
65 70 71 73 78 84 90 94 97 99 99 97 96 95 95 92 92 91 90 92 89 83
68 72 75 80 86 91 97 103 109 114 116 118 116 112 108 106 102 101 102 102 102 100
71 74 81 89 97 103 105 108 111 115 115 118 123 121 117 99 84 99 110 110 110 110
78 87 94 98 100 100 102 106 109 112 115 114 126 117 91 81 86 98 112 115 117 115
88 91 93 95 96 97 97 103 104 110 108 108 115 111 89 83 86 94 99 113 115 111
88 89 90 94 93 95 97 97 94 93 88 85 84 87 72 69 72 82 88 91 93 93
Wind_Direction_500mb
17 22 24 23 15 4 359 350 330 307 293 291 286 274 263 258 257 258 260 260 260 262
19 16 19 17 12 7 358 353 348 342 336 323 306 292 279 267 263 260 259 261 261 259
6 4 358 351 350 351 347 344 341 341 342 343 335 325 305 288 276 268 263 261 261 261
356 351 346 339 336 332 330 330 332 333 336 336 332 332 328 316 305 290 276 264 262 263
344 341 338 333 333 331 327 324 321 322 322 322 322 323 323 320 316 309 301 291 275 266
338 335 332 329 327 326 323 322 320 317 314 313 310 309 312 312 311 307 303 301 295 290
327 325 321 320 321 319 320 320 318 314 312 311 309 306 303 299 299 299 298 297 293 292
320 319 317 316 315 314 313 313 311 310 309 308 306 304 303 300 296 292 291 291 290 288
314 313 313 312 312 312 313 311 309 306 304 301 298 298 298 297 295 293 291 288 285 285
310 311 312 311 309 306 304 302 301 301 300 299 296 293 291 290 290 288 285 284 284 283
310 309 308 306 305 304 303 301 299 297 296 294 291 291 293 293 289 284 281 280 279 279
309 308 308 306 306 305 303 301 299 296 294 293 291 291 292 292 288 285 282 280 277 276
311 311 311 310 309 307 304 301 299 296 295 293 292 292 291 290 287 284 282 282 281 277
315 315 314 313 313 312 309 306 303 302 302 302 301 302 298 295 288 285 285 282 281 279
Wind_Speed_850mb
25 27 27 26 28 27 26 27 27 31 37 32 29 30 36 49 60 64 69 74 77 84
26 26 29 31 31 33 33 31 28 27 29 29 28 32 36 41 47 56 64 70 74 79
27 29 31 30 31 34 37 40 40 37 33 33 32 29 33 40 44 51 57 64 71 73
28 29 31 34 33 31 36 44 49 50 48 46 44 39 36 37 42 48 52 55 62 68
38 39 38 41 44 44 43 42 47 52 52 52 55 52 47 47 46 49 50 51 57 63
48 51 52 54 56 57 59 58 58 60 60 56 56 58 57 58 57 56 56 55 55 58
50 56 59 63 68 72 74 75 74 74 74 70 71 69 66 65 67 69 66 62 60 59
58 64 69 72 74 74 74 75 78 82 84 84 82 82 80 79 78 79 78 78 74 67
65 70 71 73 78 84 90 94 97 99 99 97 96 95 95 92 92 91 90 92 89 83
68 72 75 80 86 91 97 103 109 114 116 118 116 112 108 106 102 101 102 102 102 100
71 74 81 89 97 103 105 108 111 115 115 118 123 121 117 99 84 99 110 110 110 110
78 87 94 98 100 100 102 106 109 112 115 114 126 117 91 81 86 98 112 115 117 115
88 91 93 95 96 97 97 103 104 110 108 108 115 111 89 83 86 94 99 113 115 111
88 89 90 94 93 95 97 97 94 93 88 85 84 87 72 69 72 82 88 91 93 93
Wind_Direction_850mb
17 22 24 23 15 4 359 350 330 307 293 291 286 274 263 258 257 258 260 260 260 262
19 16 19 17 12 7 358 353 348 342 336 323 306 292 279 267 263 260 259 261 261 259
6 4 358 351 350 351 347 344 341 341 342 343 335 325 305 288 276 268 263 261 261 261
356 351 346 339 336 332 330 330 332 333 336 336 332 332 328 316 305 290 276 264 262 263
344 341 338 333 333 331 327 324 321 322 322 322 322 323 323 320 316 309 301 291 275 266
338 335 332 329 327 326 323 322 320 317 314 313 310 309 312 312 311 307 303 301 295 290
327 325 321 320 321 319 320 320 318 314 312 311 309 306 303 299 299 299 298 297 293 292
320 319 317 316 315 314 313 313 311 310 309 308 306 304 303 300 296 292 291 291 290 288
314 313 313 312 312 312 313 311 309 306 304 301 298 298 298 297 295 293 291 288 285 285
310 311 312 311 309 306 304 302 301 301 300 299 296 293 291 290 290 288 285 284 284 283
310 309 308 306 305 304 303 301 299 297 296 294 291 291 293 293 289 284 281 280 279 279
309 308 308 306 306 305 303 301 299 296 294 293 291 291 292 292 288 285 282 280 277 276
311 311 311 310 309 307 304 301 299 296 295 293 292 292 291 290 287 284 282 282 281 277
315 315 314 313 313 312 309 306 303 302 302 302 301 302 298 295 288 285 285 282 281 279